www.pogodaiklimat.ru

Погода и климат >> Архив погоды >> Япония >> Oita


ПОГОДА в Oita

  • Прогноз погоды в Oita
  • Монитор погоды в Oita
  • Климат города

АРХИВ ПОГОДЫ в Oita

Время (UTC), дата Ветер
(напр.,м/с)
 
Видим.   Явления Облачность Т
(С)
Тd
(С)
f
(%)
Тe
(С)
Тes
(С)
Комфортность P
(гПа)
Po
(гПа)
Тmin
(С)
Tmax
(С)
R
(мм)
R24
(мм)
S
(см)
22 13.09 ЮВ 1 н/о н/о +23.4 +23.2 99 +33 +33 очень
душно
1016.2 1014.6
23 13.09 ЮВ 1 н/о н/о +23.8 +23.1 96 +32 +32 очень
душно
1016.3 1014.7
00 14.09 В 2 6000 м дымка 10/9
[Cu med, cong Ac As]
+24.7 +23.5 93 +33 +34 очень
душно
1016.3 1014.7 +22.8 0.0
02 14.09 С 1 н/о н/о +25.5 +22.8 85 +34 +34 очень
душно
1016.0 1014.4
01 14.09 В 1 н/о н/о +25.2 +22.9 87 +33 +33 очень
душно
1016.4 1014.8
03 14.09 С 2 8000 м в посл. час ливневой дождь 10/9
[Cu med, cong Ac As]
+25.8 +22.7 83 +34 +35 очень
душно
1015.8 1014.3
04 14.09 С 2 н/о н/о +26.0 +22.7 82 +34 +34 очень
душно
1015.5 1014.0
05 14.09 С 2 н/о н/о +26.9 +22.7 78 +36 +36 очень
душно
1014.8 1013.3
06 14.09 С 2 8000 м дымка {ливн. осадки} 9/5
[Cu med, cong Ac trans Ci sp]
+26.3 +23.2 83 +35 +38 очень
душно
1014.3 1012.8 0.0
08 14.09 СЗ 2 н/о н/о +25.3 +23.0 87 +34 +34 очень
душно
1014.4 1012.9
07 14.09 СЗ 2 н/о н/о +26.1 +23.4 85 +35 +35 очень
душно
1014.0 1012.5
09 14.09 СЗ 2 10 км 9/6
[Cu Sc Ac As Ci sp]
+25.2 +23.1 88 +34 +34 очень
душно
1014.4 1012.8
10 14.09 СЗ 1 н/о н/о +25.1 +23.2 89 +34 +34 очень
душно
1014.7 1013.1
11 14.09 С 1 н/о н/о +25.3 +23.4 89 +34 +34 очень
душно
1015.4 1013.8
12 14.09 Ю 1 10 км в посл. час ливневой дождь 9/8
[Cu Sc Ac As Ci sp]
+25.3 +23.5 90 +34 +34 очень
душно
1015.4 1013.8 +27.7 0.0
14 14.09 ЮЗ 1 н/о н/о +24.9 +23.9 94 +34 +34 очень
душно
1015.1 1013.5
13 14.09 ЮВ 2 н/о н/о +25.4 +23.6 90 +35 +35 очень
душно
1015.1 1013.5
15 14.09 Ю 2 н/о н/о +24.6 +23.8 95 +33 +33 очень
душно
1014.9 1013.3
16 14.09 Ю 2 н/о н/о +24.6 +23.4 93 +33 +33 очень
душно
1014.6 1013.0
17 14.09 З 1 н/о н/о +24.5 +23.3 93 +33 +33 очень
душно
1014.2 1012.6
18 14.09 Ю 1 10 км {ливн. осадки} 9/6
[Cu Sc Ac trans Ci sp]
+24.4 +23.6 95 +33 +33 очень
душно
1014.0 1012.4 0.0
20 14.09 ЮЗ 2 н/о н/о +24.0 +23.5 97 +32 +32 очень
душно
1013.5 1011.9
19 14.09 С 1 н/о н/о +24.0 +23.5 97 +32 +32 очень
душно
1013.8 1012.2
21 14.09 ЮВ 1 10 км 9/3
[Cu Sc Ac trans Ci sp]
+23.9 +23.4 97 +32 +32 очень
душно
1013.9 1012.3
22 14.09 ЮВ 1 н/о н/о +24.6 +23.6 94 +33 +33 очень
душно
1014.5 1012.9
00 15.09 СЗ 1 15 км в посл. час ливневой дождь 9/4
[Cu Sc Ac trans Ci sp]
+26.9 +23.8 83 +37 +40 очень
душно
1014.8 1013.3 +23.8 0.0
01 15.09 СЗ 3 н/о н/о +27.2 +23.9 82 +37 +37 очень
душно
1014.9 1013.4
02 15.09 С 2 н/о н/о +28.3 +24.3 79 +40 +40 очень
душно
1014.5 1013.0
03 15.09 С 3 20 км {ливн. осадки} 10/5
[Cu med, cong Ac As]
+26.9 +23.4 81 +36 +38 очень
душно
1014.3 1012.8
04 15.09 С 3 н/о н/о +26.5 +23.4 83 +36 +36 очень
душно
1014.2 1012.7
05 15.09 С 2 н/о н/о +25.5 +23.9 91 +35 +35 очень
душно
1014.4 1012.9
06 15.09 ЮВ 2 20 км в посл. час ливневой дождь 9/8
[Cu Sc Ac As]
+26.5 +24.4 88 +37 +38 очень
душно
1013.4 1011.9 0.5
07 15.09 Ю 2 н/о н/о +27.2 +23.9 82 +37 +37 очень
душно
1013.6 1012.1
08 15.09 В 2 н/о н/о +27.7 +23.9 80 +38 +38 очень
душно
1013.5 1012.0
09 15.09 С 2 20 км 5/3
[Cu Sc Ac trans Cc]
+26.8 +24.3 86 +37 +38 очень
душно
1013.7 1012.2
10 15.09 СЗ 2 н/о н/о +26.0 +24.2 90 +36 +36 очень
душно
1014.0 1012.5
11 15.09 СЗ 2 н/о н/о +25.4 +24.5 95 +36 +36 очень
душно
1014.4 1012.9
12 15.09 С 1 10 км 5/4
[Sc Ac trans Ci sp]
+25.1 +24.2 95 +35 +35 очень
душно
1014.7 1013.1 +28.9 0.5
13 15.09 СЗ 1 н/о н/о +24.8 +24.1 96 +34 +34 очень
душно
1014.6 1013.0
14 15.09 СЗ 1 н/о н/о +24.7 +24.0 96 +34 +34 очень
душно
1014.5 1012.9
15 15.09 Ю 1 н/о н/о +24.7 +23.9 95 +34 +34 очень
душно
1014.6 1013.0
16 15.09 Ю 2 н/о н/о +23.7 +22.7 94 +31 +31 очень
душно
1014.5 1012.9
18 15.09 Ю 2 20 км 1/1
[Sc Ac trans]
+22.8 +22.0 95 +31 +31 очень
душно
1014.0 1012.4
21 15.09 Ю 2 20 км 4/4
[Sc]
+22.2 +21.5 96 +29 +29 очень
душно
1014.7 1013.1
00 16.09 ЮВ 2 25 км 1/1
[Cu hum Ac trans]
+27.2 +23.0 78 +36 +43 очень
душно
1015.2 1013.7 +22.2
03 16.09 С 3 30 км 3/3
[Cu hum Ac trans]
+31.3 +21.5 56 +39 +49 очень
душно
1014.0 1012.5
06 16.09 С 4 30 км 6/6
[Cu Sc]
+28.7 +22.5 69 +38 +40 очень
душно
1013.4 1011.9
07 16.09 С 2 н/о н/о +28.2 +22.9 73 +38 +38 очень
душно
1013.7 1012.2
09 16.09 С 2 30 км 8/6
[Cu Sc Ac trans]
+27.3 +22.7 76 +36 +36 очень
душно
1014.2 1012.7
11 16.09 С 2 н/о н/о +27.0 +23.1 79 +36 +36 очень
душно
1015.5 1014.0
12 16.09 С 2 15 км 10/9
[Cu Sc Ac As]
+26.9 +23.0 79 +36 +36 очень
душно
1016.0 1014.5 +31.7
13 16.09 Ю 2 н/о н/о +26.1 +23.0 83 +35 +35 очень
душно
1015.7 1014.2
15 16.09 Ю 2 н/о н/о +24.6 +23.0 91 +33 +33 очень
душно
1015.4 1013.8
17 16.09 ЮВ 2 н/о н/о +23.9 +22.2 90 +31 +31 очень
душно
1015.9 1014.3
18 16.09 Ю 2 15 км 3/3
[Sc]
+23.2 +21.7 91 +31 +31 очень
душно
1015.9 1014.3
19 16.09 Ю 1 н/о н/о +23.4 +21.9 91 +32 +32 очень
душно
1016.2 1014.6
20 16.09 Ю 2 н/о н/о +22.7 +21.2 91 +30 +30 очень
душно
1015.9 1014.3
21 16.09 Ю 2 15 км 3/3
[Cu Sc]
+22.2 +20.7 91 +29 +29 очень
душно
1016.1 1014.5
00 17.09 ЮВ 1 25 км 8/1
[Cu hum Ac trans Ci fib]
+26.2 +21.4 75 +33 +38 очень
душно
1016.4 1014.9 +22.1
01 17.09 С 2 н/о н/о +27.7 +21.5 69 +35 +35 очень
душно
1016.3 1014.8
03 17.09 С 3 40 км 9/3
[Cu med, cong Ac trans Ci fib]
+29.3 +20.7 60 +36 +42 очень
душно
1015.2 1013.7
06 17.09 СВ 3 30 км 9/6
[Cu med, cong Ac trans Ci sp]
+29.1 +21.6 64 +37 +39 очень
душно
1014.2 1012.7
09 17.09 С 3 25 км 10/5
[Cu hum Ac As]
+27.2 +22.8 77 +36 +36 очень
душно
1015.0 1013.5
12 17.09 СВ 2 20 км 9/9
[Sc]
+26.0 +22.5 81 +34 +34 очень
душно
1016.3 1014.8 +30.3
15 17.09 С 3 н/о н/о +25.3 +22.0 82 +33 +33 очень
душно
1016.4 1014.8
18 17.09 С 2 20 км 9/9
[Sc]
+25.1 +22.0 83 +32 +32 очень
душно
1016.0 1014.4
21 17.09 С 3 10 км 9/6 300 м
[Cu hum Ac trans Ci fib]
+24.4 +21.7 85 +31 +31 очень
душно
1016.6 1015.0
00 18.09 С 2 9000 м мгла 9/3
[Cu Sc Ac trans Ci fib]
+25.9 +21.6 77 +33 +36 очень
душно
1017.1 1015.5 +24.3
03 18.09 С 2 15 км 8/3
[Cu med, cong Ac trans Ci fib]
+28.6 +20.4 61 +35 +42 очень
душно
1015.5 1014.0
06 18.09 СВ 4 15 км 4/3
[Cu med, cong Ac trans Ci fib]
+28.4 +20.9 64 +36 +40 очень
душно
1013.8 1012.3
09 18.09 С 2 15 км 6/4
[Cu med, cong Ac trans Ci fib]
+26.5 +20.6 70 +33 +33 очень
душно
1013.9 1012.4
11 18.09 С 1 н/о н/о +26.1 +20.7 72 +33 +33 очень
душно
1014.7 1013.2
12 18.09 Ю 2 15 км 9/9
[Cu Sc]
+25.7 +21.6 78 +33 +33 очень
душно
1014.9 1013.4 +30.4
13 18.09 ЮЗ 1 н/о н/о +25.3 +21.8 81 +33 +33 очень
душно
1015.0 1013.4
14 18.09 Ю 2 н/о н/о +24.7 +22.0 85 +32 +32 очень
душно
1015.0 1013.4
15 18.09 Ю 2 н/о н/о +24.3 +21.6 85 +31 +31 очень
душно
1014.8 1013.2
17 18.09 Ю 2 н/о н/о +23.4 +21.5 89 +32 +32 очень
душно
1014.3 1012.7
16 18.09 Ю 2 н/о н/о +23.7 +21.2 86 +30 +30 очень
душно
1014.6 1013.0
18 18.09 Ю 2 10 км 3/0
[Ac trans Ci fib]
+23.0 +21.3 90 +31 +31 очень
душно
1014.0 1012.4
19 18.09 Ю 2 н/о н/о +22.6 +20.9 90 +30 +30 очень
душно
1013.9 1012.3
20 18.09 Ю 1 н/о н/о +22.0 +20.8 93 +28 +28 душно 1014.3 1012.7
21 18.09 Ю 2 10 км 9/1
[Cu hum Ac trans Ci sp]
+22.1 +20.6 91 +28 +28 душно 1014.8 1013.2
23 18.09 Ю 2 н/о н/о +23.7 +20.6 83 +30 +30 очень
душно
1015.0 1013.4
22 18.09 Ю 2 н/о н/о +22.4 +20.7 90 +29 +29 очень
душно
1015.1 1013.5
00 19.09 В 2 9000 м дымка 8/1
[Cu med, cong Ac trans Ci fib]
+25.7 +20.9 75 +32 +36 очень
душно
1015.0 1013.5 +21.8
01 19.09 СВ 3 н/о н/о +27.0 +18.3 59 +32 +32 очень
душно
1014.8 1013.3
02 19.09 С 3 н/о н/о +28.3 +20.3 62 +35 +35 очень
душно
1014.5 1013.0
03 19.09 СВ 4 9000 м мгла 9/1
[Cu hum Ac trans Ci sp]
+27.9 +21.0 66 +35 +40 очень
душно
1013.7 1012.2
05 19.09 СВ 3 н/о н/о +28.4 +19.4 58 +34 +34 очень
душно
1012.7 1011.2
04 19.09 СВ 4 н/о н/о +28.2 +20.0 61 +34 +34 очень
душно
1013.2 1011.7
06 19.09 СВ 4 9000 м мгла 9/1
[Cu hum Ac trans Ci sp]
+28.3 +18.4 55 +33 +36 очень
душно
1012.3 1010.8
07 19.09 СВ 3 н/о н/о +27.6 +17.5 54 +32 +32 очень
душно
1012.6 1011.1
08 19.09 СВ 3 н/о н/о +27.0 +18.3 59 +32 +32 очень
душно
1012.6 1011.1
09 19.09 С 2 20 км в посл. час дождь 9/1
[Cu hum Ac As Ci sp]
+26.2 +19.6 67 +32 +32 очень
душно
1012.6 1011.1
11 19.09 Ю 2 н/о н/о +26.1 +18.8 64 +31 +31 очень
душно
1012.9 1011.4
10 19.09 СВ 1 н/о н/о +25.9 +19.1 66 +31 +31 очень
душно
1012.8 1011.3
12 19.09 ЮЗ 3 15 км в посл. час дождь 10/3
[Cu Sc Ac As]
+25.4 +20.9 76 +32 +32 очень
душно
1013.1 1011.6 +29.5 0.0
13 19.09 Ю 2 н/о н/о +25.1 +20.4 75 +31 +31 очень
душно
1012.8 1011.3
14 19.09 Ю 2 н/о н/о +24.6 +20.5 78 +31 +31 очень
душно
1012.7 1011.1
15 19.09 Ю 2 н/о н/о +24.4 +21.1 82 +31 +31 очень
душно
1012.6 1011.0
17 19.09 С 2 н/о н/о +23.4 +21.5 89 +32 +32 очень
душно
1012.3 1010.7
16 19.09 Ю 2 н/о н/о +23.1 +21.7 92 +31 +31 очень
душно
1012.4 1010.8
18 19.09 В 2 10 км в посл. час дождь 10/5
[Cu Sc Ac As]
+22.8 +19.4 81 +29 +29 очень
душно
1011.7 1010.1 0.5
19 19.09 СВ 1 н/о н/о +23.0 +21.3 90 +31 +31 очень
душно
1011.2 1009.6
20 19.09 Ю 2 н/о н/о +22.7 +20.6 88 +30 +30 очень
душно
1011.1 1009.5
21 19.09 Ю 2 8000 м в посл. час дождь 10/6
[Cu Sc Ac As]
+22.7 +20.8 89 +30 +30 очень
душно
1010.8 1009.2
23 19.09 Ю 2 н/о н/о +21.8 +20.5 92 +28 +28 душно 1011.0 1009.4
22 19.09 Ю 2 н/о н/о +22.0 +21.0 94 +28 +28 душно 1011.0 1009.4
00 20.09 Ю 2 6000 м дождь 10/5
[Frnb Ac As]
+21.3 +20.5 95 +27 +28 душно 1011.0 1009.4 +21.3 5
01 20.09 Ю 2 н/о н/о +21.7 +21.0 96 +28 +28 душно 1011.1 1009.5
02 20.09 ЮЗ 1 н/о н/о +22.2 +21.9 98 +29 +29 очень
душно
1010.7 1009.1
03 20.09 штиль 0 5000 м дождь 10/8
[Frnb Ac As]
+22.0 +21.7 98 +29 +30 очень
душно
1009.7 1008.1
05 20.09 С 2 н/о н/о +22.7 +22.2 97 +31 +31 очень
душно
1008.1 1006.5
04 20.09 В 1 н/о н/о +22.8 +22.5 98 +31 +31 очень
душно
1008.8 1007.2
06 20.09 З 1 5000 м дождь 10/9
[Frnb Ac As]
+23.2 +22.9 98 +32 +33 очень
душно
1007.6 1006.0 20
07 20.09 Ю 1 н/о н/о +23.4 +22.7 96 +33 +33 очень
душно
1007.7 1006.1
08 20.09 Ю 2 н/о н/о +23.4 +23.1 98 +33 +33 очень
душно
1007.5 1005.9
09 20.09 Ю 2 6000 м в посл. час дождь 9/3
[Cu Sc Ac As Ci fib]
+23.5 +23.2 98 +31 +31 очень
душно
1007.2 1005.7
11 20.09 ЮЗ 2 н/о н/о +23.4 +22.9 97 +33 +33 очень
душно
1008.1 1006.5
10 20.09 Ю 3 н/о н/о +23.4 +22.9 97 +33 +33 очень
душно
1007.3 1005.8
12 20.09 ЮЗ 2 6000 м в посл. час ливневой дождь 9/4
[Cu Sc Ac As]
+23.8 +23.1 96 +32 +32 очень
душно
1008.6 1007.1 +24.0 22
13 20.09 ЮВ 2 н/о н/о +23.8 +23.3 97 +32 +32 очень
душно
1008.5 1007.0
15 20.09 Ю 1 н/о н/о +23.7 +23.4 98 +32 +32 очень
душно
1008.8 1007.2
16 20.09 З 2 н/о н/о +23.5 +23.3 99 +32 +32 очень
душно
1008.6 1007.0
17 20.09 Ю 2 н/о н/о +23.5 +23.3 99 +32 +32 очень
душно
1008.3 1006.7
18 20.09 Ю 2 7000 м дымка {ливн. осадки} 9/4
[Sc Ac trans Ci sp]
+23.3 +23.1 99 +33 +33 очень
душно
1008.5 1006.9 0.0
19 20.09 Ю 1 н/о н/о +23.3 +23.1 99 +33 +33 очень
душно
1008.4 1006.8
20 20.09 Ю 1 н/о н/о +23.3 +23.1 99 +33 +33 очень
душно
1008.8 1007.2
21 20.09 Ю 2 10 км 9/8
[Cu med, cong Ac As]
+23.4 +23.2 99 +33 +33 очень
душно
1009.3 1007.7

 

Местоположение метеостанции Oita (Япония): широта 33.23 долгота 131.61 высота над уровнем моря 13 м.

В архиве по умолчанию представлена погода в Oita за последнюю неделю. Архивные данные за месяц целиком и за предыдущие месяцы, начиная с января 2011 года, Вы можете получить, выбрав интересующий диапазон дат из раскрывающегося списка и нажав кнопку "Ввод!".


*Определитесь, кто Вы:
робот инопланетянин человек

Внимание! Время в таблицах - всемирное. Для получения местного времени необходимо прибавить поправку, которая в Oita равна 9 ч.

Смотрите также архив погоды в соседних городах и на ближайших метеорологических станциях:

Погода в Hita (Япония) (64 км)
Погода в Aso-San (Япония) (64 км)
Погода в Nobeoka (Япония) (72 км)
Погода в Uwajima (Япония) (87 км)
Погода в Kumamoto (Япония) (97 км)
Погода в Iizuka (Япония) (97 км)
Погода в Shimonoseki (Япония) (102 км)
Погода в Yamaguchi (Япония) (106 км)
Погода в Sukumo (Япония) (107 км)
Погода в Fukuoka (Япония) (121 км)

Пояснения к столбцам:

Ветер - указаны скорость ветра в м/с - средняя за 10 мин, порывы в срок и между сроками (в фигурных скобках) и направление, откуда дует ветер: С - северный, СВ - северо-восточный, В - восточный, ЮВ - юго-восточный, Ю - южный, ЮЗ - юго-западный, З - западный, СЗ - северо-западный.
Видимость - горизонтальная дальность видимости в метрах или километрах. При видимости от 1 до 10 км при отсутствии осадков обычно наблюдается дымка, при ухудшении видимости до 1 км и менее - туман. В сухую погоду видимость может ухудшаться дымом, пылью или мглою.
Явления - указаны атмосферные явления, наблюдавшиеся в срок или в последний час перед сроком; фигурными скобками обозначены явления, наблюдавшиеся между сроками (за 1-3 часа до срока); квадратными скобками обозначены град или гололедные отложения с указанием их диаметра в мм.
Облачность - указаны через наклонную черту общая и нижняя облачность в баллах и высота нижней границы облаков в метрах; квадратными скобками обозначены формы облаков: Ci - перистые, Cs - перисто-слоистые, Cc - перисто-кучевые, Ac - высококучевые, As - высокослоистые, Sc - слоисто-кучевые, Ns - слоисто-дождевые, Cu - кучевые, Cb - кучево-дождевые. Подробнее классификацию облаков см. в Атласе облаков (PDF).
T - Температура воздуха - температура, измеренная на высоте 2 м над землей.
Td - Температура точки росы - температура, при понижении до которой содержащийся в воздухе водяной пар достигнет насыщения.
f - Относительная влажность воздуха - влажноcть воздуха, измеренная на высоте 2 м над землей.
Te - Эффективная температура - температура, которую ощущает одетый по сезону человек в тени. Характеристика душности погоды. При расчете учитывается влияние влажности воздуха и скорости ветра на теплоощущения человека.
Tes - Эффективная температура на солнце - температура, которую ощущает человек, с поправкой на солнечный нагрев. Характеристика знойности погоды. Зависит от высоты солнца над горизонтом, облачности и скорости ветра. Ночью, в пасмурную погоду, а также при ветре 12 м/с и более поправка равна нулю.
P - Атмосферное давление - приведенное к уровню моря атмосферное давление.
Po - Атмосферное давление - измеренное на уровне метеостанции атмосферное давление.
Tmin - Минимальная температура - минимум температуры воздуха на высоте 2 м над землей.
Tmax - Максимальная температура - максимум температуры воздуха на высоте 2 м над землей.
R - Количество осадков - Количество выпавших осадков за период времени, мм. При наведении курсора мыши на число - период времени, за который выпало указанное количество осадков.
R24 - Количество осадков - Количество выпавших осадков за 24 часа, мм.
S - Снежный покров - Высота снежного покрова, см. При наведении курсора мыши на число - состояние снежного покрова и степень покрытия местности в баллах.